Waverly, WV

12:18 AM EST on February 14, 2016 (GMT -0500)
Wood County Wilson

Weather History for KPKB - April, 2014

Change the Weather History Date:

Saturday, April 26, 2014

  Actual Average Record
Temperature  
Mean Temperature 53 °F 57 °F  
Max Temperature 64 °F 70 °F 91 °F (1990)
Min Temperature 42 °F 45 °F 31 °F (1972)
Degree Days  
Heating Degree Days 12 9  
Month to date heating degree days 259 314  
Since 1 July heating degree days 4607 4775  
Cooling Degree Days 0 1  
Month to date cooling degree days 5 16  
Year to date cooling degree days 5 19  
Growing Degree Days 4 (Base 50)    
Moisture  
Dew Point 42 °F    
Average Humidity 70    
Maximum Humidity 96    
Minimum Humidity 43    
Precipitation  
Precipitation 0.00 in 0.11 in 0.75 in (2005)
Month to date precipitation 2.31 2.83  
Year to date precipitation 7.72 12.21  
Sea Level Pressure  
Sea Level Pressure 29.93 in    
Wind  
Wind Speed 8 mph (West)    
Max Wind Speed 16 mph    
Max Gust Speed 23 mph    
Visibility 8 miles    
Events      
T = Trace of Precipitation, MM = Missing Value Source: NWS Daily Summary

Daily Weather History Graph

Daily Weather History Graph

Search for Another Location

Airport or City:

Trip Planner

Search our weather history database for the weather conditions in past years. The results will help you decide how hot, cold, wet, or windy it might be!

Date:

Astronomy

Apr. 26, 2014 Rise Set
Actual Time 6:33 AM EDT 8:14 PM EDT
Civil Twilight 6:04 AM EDT 8:42 PM EDT
Nautical Twilight 5:30 AM EDT 9:17 PM EDT
Astronomical Twilight 4:53 AM EDT 9:54 PM EDT
Moon 4:55 AM EDT (4/26) 5:42 PM EDT (4/26)
Length of Visible Light 14h 38m
Length of Day
13h 40m
Waning Crescent, 8% of the Moon is Illuminated
Apr 26
Waning Crescent
Apr 29
New
May 6
First Quarter
May 14
Full
May 21
Last Quarter

Hourly Weather History & Observations

Time (EDT) Temp. Windchill Dew Point Humidity Pressure Visibility Wind Dir Wind Speed Gust Speed Precip Events Conditions
12:31 AM 44.1 °F - 42.1 °F 93% 29.96 in 1.8 mi Calm Calm - N/A   Clear
12:40 AM 44.1 °F - 42.1 °F 93% 29.96 in 2.5 mi Calm Calm - N/A   Clear
12:53 AM 44.1 °F - 42.1 °F 93% 29.97 in 4.0 mi Calm Calm - N/A   Clear
1:53 AM 44.1 °F - 42.1 °F 93% 29.95 in 6.0 mi Calm Calm - N/A   Clear
2:53 AM 45.0 °F - 41.0 °F 86% 29.93 in 8.0 mi Calm Calm - N/A   Partly Cloudy
3:53 AM 45.0 °F 42.6 °F 41.0 °F 86% 29.92 in 9.0 mi SSE 4.6 mph - N/A   Overcast
4:53 AM 43.0 °F 40.3 °F 41.0 °F 93% 29.92 in 7.0 mi South 4.6 mph - N/A   Mostly Cloudy
5:53 AM 45.0 °F 43.5 °F 41.0 °F 86% 29.92 in 8.0 mi South 3.5 mph - N/A   Partly Cloudy
6:53 AM 46.9 °F - 43.0 °F 86% 29.93 in 6.0 mi South 5.8 mph - N/A   Partly Cloudy
7:53 AM 50.0 °F - 45.0 °F 83% 29.93 in 8.0 mi SW 6.9 mph - N/A   Partly Cloudy
8:53 AM 54.0 °F - 45.0 °F 72% 29.96 in 10.0 mi West 5.8 mph - N/A   Mostly Cloudy
9:53 AM 54.0 °F - 43.0 °F 66% 29.96 in 10.0 mi WSW 9.2 mph - N/A   Overcast
10:53 AM 57.0 °F - 44.1 °F 62% 29.96 in 10.0 mi SW 9.2 mph - N/A   Overcast
11:53 AM 64.0 °F - 46.0 °F 52% 29.95 in 10.0 mi SW 9.2 mph - N/A   Mostly Cloudy
12:53 PM - - - N/A% 29.92 in 10.0 mi West 11.5 mph 23.0 mph N/A   Partly Cloudy
1:53 PM - - - N/A% 29.90 in 10.0 mi NW 11.5 mph 23.0 mph N/A   Scattered Clouds
2:53 PM - - - N/A% 29.91 in 10.0 mi West 11.5 mph 20.7 mph N/A   Mostly Cloudy
3:53 PM - - - N/A% 29.88 in 10.0 mi West 11.5 mph 20.7 mph N/A   Mostly Cloudy
4:53 PM - - - N/A% 29.87 in 10.0 mi West 11.5 mph 20.7 mph N/A   Mostly Cloudy
5:53 PM - - - N/A% 29.89 in 10.0 mi NNW 11.5 mph 20.7 mph N/A   Mostly Cloudy
6:53 PM - - - N/A% 29.89 in - North - - N/A   Unknown
7:53 PM - - - N/A% 29.91 in 10.0 mi NNW 16.1 mph - N/A   Scattered Clouds
8:53 PM - - - N/A% 29.94 in 10.0 mi North 11.5 mph - N/A   Mostly Cloudy
9:53 PM 62.1 °F - 39.0 °F 43% 29.96 in 10.0 mi North 9.2 mph - N/A   Mostly Cloudy
10:53 PM 60.1 °F - 39.0 °F 46% 29.99 in 10.0 mi North 5.8 mph - N/A   Overcast
11:53 PM 55.9 °F - 36.0 °F 47% 30.01 in 10.0 mi NE 12.7 mph - N/A   Mostly Cloudy